Flag for Germany Weather past 2 weeks in Neuwied, Rhineland-Palatinate, Germany

Now
43 °F

Fog.


Feels Like: 39 °F
Forecast: 40 / 58 °F
Wind: 7 mph from Southwest

Location: Buechel

Current Time: Oct 23, 2014 at 11:38:52 AM

Latest Report: Oct 23, 2014 at 10:45 AM


Visibility: 2 mi

Pressure: 30.24 "Hg

Humidity: 93%

Dew point: 41 °F

Location of NeuwiedLocation

Historic Weather in Neuwied — Graph

°F

Neuwied temperature yesterday

Maximum temperature yesterday: 46 °F (at 4:20 PM)
Minimum temperature yesterday: 37 °F (at 5:20 AM)
Average temperature yesterday: 42 °F

Past Weeks' High & Low Weather Summary

 TemperatureHumidityPressure
High66 °F (Oct 18, 3:20 PM)100% (Oct 8, 1:01 PM)30.24 "Hg (Oct 8, 1:01 PM)
Low37 °F (Oct 22, 5:20 AM)63% (Oct 15, 3:20 PM)29.56 "Hg (Oct 21, 4:20 PM)
Average53 °F91%29.90 "Hg
* Reported Oct 8 10:20 AM — Oct 23 10:20 AM, Neuwied, Weather by CustomWeather, © 2014

Note: Actual official high and low records may vary slightly from our data, if they occured in-between our weather recording intervals... More about our weather records

Advertising

Neuwied weather history for previous 24 hours

 ConditionsComfort  
Time TempWeatherWind HumidityBarometerVisibility
10:20 AM
Oct 23
43 °FFog.6 mph93%30.24 "Hg1 mi
9:59 AM43 °FFog.6 mph93%30.24 "Hg1 mi
9:20 AM43 °FFog.5 mph93%30.24 "Hg1 mi
9:01 AM41 °FFog.6 mph100%30.21 "Hg1 mi
8:20 AM41 °FFog.5 mph100%30.21 "Hg1 mi
7:20 AM41 °FFog.6 mph100%30.18 "Hg1 mi
6:47 AM41 °FFog.7 mph100%30.18 "Hg1 mi
6:20 AM41 °FFog.6 mph100%30.18 "Hg3 mi
5:20 AM41 °FPartly cloudy.5 mph93%30.18 "Hg4 mi
4:20 AM41 °FPartly cloudy.6 mph93%30.18 "Hg4 mi
3:20 AM41 °FQuite cool.5 mph93%30.18 "Hg3 mi
2:20 AM43 °FQuite cool.7 mph93%30.18 "HgN/A
1:20 AM43 °FQuite cool.7 mph93%30.18 "HgN/A
12:20 AM45 °FQuite cool.8 mph87%30.18 "HgN/A
11:20 PM
Oct 22
43 °FQuite cool.7 mph93%30.18 "HgN/A
10:20 PM45 °FQuite cool.10 mph81%30.15 "HgN/A
9:20 PM45 °FPassing clouds.9 mph81%30.15 "HgN/A
8:20 PM43 °FPartly cloudy.9 mph87%30.12 "HgN/A
7:20 PM45 °FBroken clouds.14 mph81%30.09 "HgN/A
6:20 PM45 °FBroken clouds.15 mph81%30.07 "HgN/A
5:20 PM45 °FScattered showers. Broken clouds.13 mph81%30.07 "Hg6 mi
4:20 PM46 °FPartly sunny.14 mph76%30.07 "HgN/A
3:20 PM45 °FPartly sunny.14 mph81%30.04 "HgN/A
2:20 PM43 °FSprinkles. Broken clouds.13 mph87%30.07 "HgN/A
1:20 PM45 °FBroken clouds.14 mph81%30.04 "HgN/A
12:20 PM43 °FLight rain. Partly sunny.15 mph87%30.04 "HgN/A
11:20 AM41 °FLight rain. Partly sunny.12 mph93%30.04 "HgN/A
Weather by CustomWeather, © 2014

See weather overviewHow to use our weather pages